QPF
0.00 0.00 0.02 0.08 0.11 0.15 0.18 0.12 0.05 0.00 0.00 0.00 0.00 0.00 0.00 0.00 0.00 0.00 0.00 0.00 0.00 0.02
0.01 0.01 0.10 0.11 0.14 0.30 0.10 0.07 0.03 0.01 0.00 0.00 0.00 0.00 0.00 0.00 0.00 0.00 0.00 0.00 0.00 0.05
0.05 0.02 0.02 0.01 0.01 0.07 0.13 0.05 0.08 0.06 0.01 0.01 0.00 0.00 0.00 0.00 0.00 0.00 0.00 0.00 0.00 0.00
0.03 0.04 0.01 0.01 0.03 0.04 0.03 0.04 0.05 0.02 0.02 0.09 0.10 0.02 0.00 0.01 0.02 0.01 0.03 0.01 0.00 0.00
0.00 0.00 0.00 0.00 0.00 0.00 0.00 0.00 0.01 0.00 0.01 0.03 0.04 0.11 0.17 0.13 0.12 0.06 0.09 0.11 0.05 0.04
0.00 0.00 0.00 0.00 0.00 0.00 0.00 0.00 0.00 0.00 0.00 0.00 0.01 0.05 0.07 0.11 0.24 0.21 0.16 0.15 0.11 0.09
0.00 0.00 0.00 0.00 0.00 0.00 0.00 0.00 0.00 0.00 0.00 0.00 0.00 0.00 0.00 0.00 0.02 0.06 0.08 0.04 0.16 0.20
0.00 0.00 0.00 0.00 0.00 0.00 0.00 0.00 0.00 0.00 0.00 0.00 0.00 0.00 0.00 0.00 0.00 0.00 0.00 0.00 0.00 0.01
0.00 0.00 0.00 0.00 0.00 0.00 0.00 0.00 0.00 0.00 0.00 0.00 0.00 0.00 0.00 0.00 0.00 0.00 0.00 0.00 0.00 0.00
0.00 0.00 0.00 0.00 0.00 0.00 0.00 0.00 0.00 0.00 0.00 0.00 0.00 0.00 0.00 0.00 0.00 0.00 0.00 0.00 0.00 0.00
0.00 0.00 0.00 0.00 0.00 0.00 0.00 0.00 0.00 0.00 0.00 0.00 0.00 0.00 0.00 0.00 0.00 0.00 0.00 0.00 0.00 0.00
0.00 0.00 0.00 0.00 0.00 0.00 0.00 0.00 0.00 0.00 0.00 0.00 0.00 0.00 0.00 0.00 0.00 0.00 0.00 0.00 0.00 0.00
0.00 0.00 0.00 0.00 0.00 0.00 0.00 0.00 0.00 0.00 0.00 0.00 0.00 0.00 0.00 0.00 0.00 0.00 0.00 0.00 0.00 0.00
0.00 0.00 0.00 0.00 0.00 0.00 0.00 0.00 0.00 0.00 0.00 0.00 0.00 0.00 0.00 0.00 0.00 0.00 0.00 0.00 0.00 0.00
MSLP
1014.07 1014.27 1014.44 1014.76 1015.30 1015.44 1015.38 1015.45 1015.44 1015.54 1015.53 1015.71 1015.97 1016.11 1016.38 1016.74 1016.87 1016.93 1017.04 1017.15 1017.22 1017.23
1013.71 1013.91 1014.24 1014.88 1014.97 1014.61 1015.28 1015.10 1014.96 1015.09 1015.31 1015.39 1015.54 1015.72 1016.06 1016.23 1016.48 1016.67 1016.75 1016.73 1016.86 1016.91
1013.42 1013.81 1014.08 1014.80 1014.92 1015.01 1014.89 1014.67 1014.79 1014.72 1014.92 1015.10 1015.27 1015.52 1015.76 1015.83 1016.09 1016.29 1016.30 1016.30 1016.47 1016.56
1013.22 1013.50 1013.90 1014.36 1014.62 1014.41 1014.46 1014.53 1014.51 1014.63 1014.71 1014.72 1015.02 1015.29 1015.50 1015.62 1015.65 1015.90 1015.89 1015.93 1016.07 1016.25
1013.16 1013.58 1013.87 1014.17 1014.35 1014.59 1014.79 1014.87 1014.85 1014.86 1014.75 1014.78 1014.93 1014.93 1015.10 1015.20 1015.25 1015.39 1015.39 1015.53 1015.76 1015.76
1013.26 1013.77 1014.03 1014.35 1014.64 1014.92 1015.03 1015.05 1015.01 1015.01 1015.09 1015.08 1014.98 1014.98 1014.90 1015.11 1014.99 1014.94 1014.96 1015.16 1015.25 1015.33
1013.57 1013.98 1014.47 1014.83 1015.07 1015.30 1015.47 1015.42 1015.35 1015.33 1015.39 1015.34 1015.38 1015.34 1015.32 1015.26 1015.07 1015.03 1015.02 1015.04 1015.08 1015.13
1014.41 1014.74 1014.75 1015.06 1015.33 1015.61 1015.73 1015.85 1015.83 1015.69 1015.69 1015.77 1015.65 1015.57 1015.53 1015.40 1015.35 1015.35 1015.37 1015.42 1015.35 1015.42
1014.94 1015.18 1015.43 1015.62 1015.76 1015.84 1016.03 1016.17 1016.18 1016.17 1016.15 1016.12 1016.04 1016.37 1016.13 1015.83 1015.62 1015.55 1015.49 1015.46 1015.57 1015.66
1014.93 1015.33 1015.64 1015.67 1015.77 1016.22 1016.39 1016.46 1016.48 1016.72 1016.73 1016.73 1016.74 1016.84 1016.73 1016.32 1015.85 1015.78 1015.88 1015.90 1015.83 1015.68
1014.91 1015.49 1015.69 1015.79 1015.84 1016.19 1016.48 1016.67 1016.72 1017.04 1017.20 1017.17 1017.48 1017.32 1017.14 1016.83 1016.32 1016.01 1015.98 1015.99 1015.97 1015.94
1015.11 1015.64 1015.79 1015.82 1015.92 1016.18 1016.45 1016.69 1016.87 1017.24 1017.72 1017.72 1017.79 1018.14 1017.86 1017.19 1016.67 1016.43 1016.31 1016.24 1016.21 1016.25
1015.29 1015.75 1015.79 1015.94 1015.98 1016.21 1016.33 1016.73 1017.32 1017.77 1018.32 1018.49 1018.35 1018.51 1018.43 1018.05 1017.21 1016.83 1016.43 1016.45 1016.49 1016.69
1015.39 1015.85 1015.82 1016.04 1016.19 1016.26 1016.49 1017.04 1017.59 1017.96 1018.43 1018.59 1018.88 1018.76 1018.82 1018.54 1017.72 1017.40 1016.93 1016.50 1016.55 1016.79
Thickness
5766 5764 5763 5759 5754 5753 5753 5753 5754 5755 5757 5758 5759 5760 5759 5760 5760 5761 5760 5760 5760 5760
5771 5769 5764 5758 5755 5755 5753 5756 5759 5759 5761 5762 5762 5763 5763 5763 5762 5762 5762 5763 5762 5762
5774 5770 5767 5755 5755 5757 5757 5760 5761 5763 5765 5765 5766 5766 5765 5766 5765 5763 5765 5765 5764 5763
5774 5773 5769 5762 5759 5762 5763 5765 5765 5766 5767 5768 5767 5767 5766 5766 5766 5764 5765 5766 5765 5764
5773 5771 5768 5766 5765 5764 5762 5764 5765 5767 5768 5769 5768 5769 5768 5768 5769 5767 5767 5767 5765 5766
5770 5766 5766 5766 5764 5762 5760 5762 5764 5765 5765 5765 5767 5768 5770 5768 5769 5769 5770 5768 5768 5768
5763 5763 5760 5759 5759 5757 5756 5757 5759 5760 5761 5762 5763 5763 5764 5765 5767 5768 5768 5768 5768 5768
5753 5752 5754 5753 5753 5752 5751 5751 5752 5754 5754 5754 5756 5759 5759 5760 5760 5760 5759 5760 5762 5762
5746 5745 5743 5744 5745 5746 5746 5745 5745 5746 5747 5747 5749 5745 5748 5751 5754 5754 5754 5754 5755 5755
5742 5741 5740 5741 5740 5737 5736 5738 5738 5736 5737 5738 5739 5737 5739 5742 5747 5747 5745 5745 5745 5747
5737 5734 5735 5735 5735 5734 5733 5732 5732 5729 5728 5729 5727 5727 5729 5732 5737 5739 5738 5737 5736 5736
5728 5726 5727 5728 5729 5729 5728 5727 5726 5722 5718 5719 5719 5714 5715 5722 5726 5726 5726 5728 5728 5726
5716 5718 5721 5722 5723 5724 5724 5720 5715 5711 5706 5704 5707 5704 5704 5707 5714 5714 5717 5717 5715 5712
5706 5708 5714 5716 5715 5716 5715 5710 5705 5703 5698 5697 5693 5694 5692 5693 5700 5701 5703 5706 5705 5703